Location: ????????
(60.4333°N, 46.4710°E)
Time: 07:00:46
(UTC+00:00)

ISS - Visible Passes

Search period start: 04 March 2021 00:00
Search period end: 14 March 2021 00:00
Orbit: 417 x 422 km, 51.6° (Epoch: 04 March)

Date Brightness Start Highest point End Pass type
(mag) Time Alt. Az. Time Alt. Az. Time Alt. Az.
04 Mar -1.9 01:36:49 18° S 01:37:10 19° S 01:39:37 10° SE visible
05 Mar -1.4 00:51:08 15° SSE 00:51:08 15° SSE 00:52:18 10° SE visible
05 Mar -1.6 02:24:06 11° SW 02:25:53 16° SSW 02:27:59 10° SSE visible
06 Mar -1.9 01:38:27 17° SSW 01:38:36 17° S 01:40:54 10° SSE visible
07 Mar -1.3 00:52:49 14° SSE 00:52:49 14° SSE 00:53:43 10° SE visible
07 Mar -1.4 02:26:04 10° SW 02:27:13 11° SSW 02:28:22 10° S visible
08 Mar -1.6 01:40:12 14° SSW 01:40:12 14° SSW 01:41:44 10° SSE visible
09 Mar -1.0 00:54:42 10° SSE 00:54:42 10° SSE 00:54:48 10° SSE visible
